COSMOS 1275 DEB, 17617

Orbit data source: Space-Track

COSMOS 1275 DEB, 17617 is space debris in LEO originally from a launch on Thu, 04 Jun 1981 UTC launched from the Plesetsk Missile And Space Complex (PKMTR). Debris objects in space refer to the collection of defunct objects orbiting the Earth. Examples of debris include non-operational satellites, rocket bodies, and fragments generated from explosions, collisions, or faulty payload assembly.

Loading next visibility...
Identifier
17617, 1981-053KL
Orbit
LEO
Country
Flag of CISCIS
Related business
Manufacturer
Unknown
Mission
Spacecraft
Bus & Motor
Unknown
Mass
Unknown
Launch date (UTC)
1981-06-04 (45 years ago)
Launch vehicle
Unknown
Launch site
Plesetsk Missile And Space Complex (PKMTR)
Object type
Payload
Rocket body
Debris
Shape & HBR
Unknown shape, 0.1 m
Radar Cross Section
Small (<0.1 m²)

Expand to show TLE details & history
Last TLE update: 7 hours ago

TLE from 7 hours ago
0 COSMOS 1275 DEB
1 17617U 81053KL  25355.51325721  .00000786  00000-0  82586-3 0  9998
2 17617  82.8579 252.5994 0177670 284.3313 251.1003 13.67322384 18001
Epoch: 2025-12-21T12:19Z
TLE epoch observation values (Epoch: 2025-12-21T12:19:05.422Z)
Latitude
6.35414°
Longitude
156.70679°
Altitude
1,056.078 km
Speed
7.302 km/s
True Right ascension
04h 47m 12s
True Declination
6° 19' 05"
Sunlit
Object was in full shadow at epoch
Visualization orbit readout
Latitude
Unknown
Longitude
Unknown
Altitude
Unknown
Speed
Unknown
Apparent Right ascension
Unknown
Apparent Declination
Unknown
Sunlit
N/A
Visualization observer readout
Local Sidereal Time
17:55:03
Azimuth
Unknown
Elevation
Unknown
Doppler factor
Unknown
Orbital elements
Apogee altitude
1,137.561 km
Perigee altitude
875.161 km
Semi-major axis
7,384.498 km
Eccentricity
0.01777
Inclination
82.8579°
RAAN
252.5994°
Arg. of periapsis
284.3313°
True anomaly
249.18823°
Mean anomaly
251.1003°
Eccentric anomaly
250.14285°
Mean motion
3.42028 °/min
Orbital period
105.25 mins
BSTAR
0.00082586
Loading maneuver chart data...
Computing Atmospheric mass density...
Loading historical data...
Loading historical data...
Loading historical data...
Loading historical data...
Loading historical data...
Loading historical data...
Loading historical data...

Documentation

Showing up to 5 results
|